Погода в Ирбите

Россия / Свердловская область     57°41′01″N   63°03′27″E
темп.,
°C
ветер,
м/с
пор.,
м/с
влажн.,
%
обл.,
%
осадки,
мм/ч
давл.,
гПа
погр.,
м
13 апреля, вт
вт1323:00+4зсз28890 0.0 1039152
02:00+2зсз23930 0.0 103951
05:00+1зсз22890 0.0 104115
08:00+4зюз12780 0.0 1041118
11:00+8зюз34605 0.0 1040522
14:00+11юз45511 0.0 1038879
17:00+12юз47548 0.0 1036836
20:00+8ююз398088 0.0 1035162
14 апреля, ср
ср1423:00+8юз4128986 0.0 1033264
02:00+7юз3993100 0.0 1031190
05:00+6зюз31094100 0.0 1030205
08:00+8зюз4119097 0.0 1030342
11:00+14з587235 0.0 1029627
14:00+17з58557 0.0 10281319
17:00+18з485268 0.0 10271582
20:00+13зсз2272100 0.0 102619
15 апреля, чт
чт1523:00+10зюз228097 0.0 102631
02:00+9зюз368962 0.0 1025104
05:00+8зюз37907 0.0 1025114
08:00+10зюз39837 0.0 1024233
11:00+16зюз47645 0.0 1022705
14:00+19зюз584473 0.0 10201442
17:00+19зюз49445 0.0 10181733
20:00+13зюз35595 0.0 101773
16 апреля, пт
пт1623:00+10зюз3867100 0.0 1016135
02:00+9з387436 0.0 1015142
05:00+7ссв598994 0.1 1016431
08:00+5ссв5985100 0.9 1018775
11:00+4ссв488799 2.7 1019718
14:00+6св4761100 0.3 10201222
17:00+5св6871100 0.5 1020984
20:00+3св487096 0.0 1021696
17 апреля, сб
сб1723:000св37785 0.1 1021215
02:00−1св27725 0.0 1020248
05:00−2св24700 0.0 1019218
08:00−1всв2358100 0.0 1018436
11:00+2всв3343100 0.0 10171121
14:00+4всв333697 0.0 10161771
17:00+4св353252 0.0 10162056
20:000св36502 0.0 1018100